Prestonsburg, KY

5:41 AM EST on February 19, 2018 (GMT -0500)
Prestonsburg

Weather History for KK22 - March, 2013

Change the Weather History Date:

Monday, March 11, 2013

  Actual Average (KJKL) Record (KJKL)
Temperature  
Mean Temperature 54 °F -  
Max Temperature 64 °F 51 °F 82 °F (1990)
Min Temperature 43 °F 32 °F 16 °F (1998)
Degree Days  
Heating Degree Days 12    
Growing Degree Days 4 (Base 50)    
Moisture  
Dew Point 42 °F    
Average Humidity 60    
Maximum Humidity 96    
Minimum Humidity 32    
Precipitation  
Precipitation 0.00 in - - ()
Sea Level Pressure  
Sea Level Pressure 29.84 in    
Wind  
Wind Speed 12 mph (South)    
Max Wind Speed 21 mph    
Max Gust Speed 28 mph    
Visibility 10 miles    
Events Rain    
Averages and records for this station are not official NWS values.
T = Trace of Precipitation, MM = Missing Value Source: NWS Daily Summary

Daily Weather History Graph

Daily Weather History Graph

Search for Another Location

Airport or City:

Trip Planner

Search our weather history database for the weather conditions in past years. The results will help you decide how hot, cold, wet, or windy it might be!

Date:

Astronomy

Mar. 11, 2013 Rise Set
Actual Time 7:47 AM EDT 7:34 PM EDT
Civil Twilight 7:21 AM EDT 8:00 PM EDT
Nautical Twilight 6:50 AM EDT 8:30 PM EDT
Astronomical Twilight 6:20 AM EDT 9:01 PM EDT
Moon 7:20 AM EDT (3/11) 7:44 PM EDT (3/11)
Length of Visible Light 12h 39m
Length of Day
11h 46m
Waning Crescent, 0% of the Moon is Illuminated
Mar 11
Waning Crescent
Mar 11
New
Mar 19
First Quarter
Mar 27
Full
Apr 3
Last Quarter

Hourly Weather History & Observations

Time (EDT) Temp. Windchill Dew Point Humidity Pressure Visibility Wind Dir Wind Speed Gust Speed Precip Events Conditions
12:15 AM 62.1 °F - 31.6 °F 32% 29.97 in 10.0 mi SSE 15.0 mph 23.0 mph N/A   Clear
12:35 AM 61.3 °F - 31.8 °F 33% 29.97 in 10.0 mi SSE 11.5 mph 20.7 mph N/A   Clear
1:15 AM 60.3 °F - 31.5 °F 34% 29.96 in 10.0 mi South 13.8 mph 18.4 mph N/A   Clear
1:35 AM 60.1 °F - 31.3 °F 34% 29.94 in 10.0 mi SSE 10.4 mph 21.9 mph N/A   Clear
1:55 AM 60.1 °F - 30.9 °F 33% 29.94 in 10.0 mi South 12.7 mph 19.6 mph N/A   Clear
2:15 AM 60.1 °F - 30.9 °F 33% 29.94 in 10.0 mi SSE 11.5 mph 17.3 mph N/A   Clear
2:35 AM 60.1 °F - 30.9 °F 33% 29.93 in 10.0 mi SSE 11.5 mph 18.4 mph N/A   Clear
2:55 AM 59.9 °F - 31.1 °F 34% 29.92 in 10.0 mi SSE 12.7 mph 24.2 mph N/A   Clear
3:15 AM 59.9 °F - 31.1 °F 34% 29.92 in 10.0 mi South 13.8 mph 18.4 mph N/A   Clear
3:35 AM 59.9 °F - 31.6 °F 34% 29.91 in 10.0 mi SSE 12.7 mph 18.4 mph N/A   Clear
3:55 AM 59.4 °F - 32.0 °F 36% 29.89 in 10.0 mi SSE 11.5 mph 18.4 mph N/A   Clear
4:15 AM 59.2 °F - 32.0 °F 36% 29.89 in 10.0 mi South 11.5 mph 17.3 mph N/A   Clear
4:35 AM 58.8 °F - 32.4 °F 37% 29.89 in 10.0 mi South 9.2 mph - N/A   Clear
4:55 AM 59.0 °F - 32.9 °F 37% 29.88 in 10.0 mi SSE 10.4 mph - N/A   Clear
5:15 AM 59.2 °F - 33.3 °F 38% 29.87 in 10.0 mi SSE 15.0 mph 19.6 mph N/A   Clear
5:35 AM 59.0 °F - 33.6 °F 38% 29.87 in 10.0 mi South 10.4 mph - N/A   Clear
5:55 AM 59.0 °F - 34.0 °F 39% 29.88 in 10.0 mi South 10.4 mph 16.1 mph N/A   Clear
6:15 AM 59.0 °F - 34.3 °F 40% 29.88 in 10.0 mi South 9.2 mph - N/A   Clear
6:35 AM 58.8 °F - 35.2 °F 41% 29.88 in 10.0 mi SSE 11.5 mph 16.1 mph N/A   Clear
6:55 AM 59.0 °F - 36.1 °F 42% 29.88 in 10.0 mi South 12.7 mph 17.3 mph N/A   Clear
7:15 AM 59.2 °F - 37.6 °F 45% 29.88 in 10.0 mi South 13.8 mph 23.0 mph N/A   Clear
7:35 AM 59.0 °F - 38.5 °F 47% 29.88 in 10.0 mi SSE 15.0 mph 23.0 mph N/A   Clear
7:55 AM 58.8 °F - 39.4 °F 49% 29.87 in 10.0 mi SSE 20.7 mph 27.6 mph N/A   Clear
8:15 AM 59.0 °F - 40.1 °F 50% 29.89 in 10.0 mi South 12.7 mph 24.2 mph N/A   Clear
8:35 AM 59.0 °F - 40.5 °F 50% 29.89 in 10.0 mi South 13.8 mph 21.9 mph N/A   Clear
8:55 AM 58.6 °F - 41.0 °F 52% 29.89 in 10.0 mi SSE 10.4 mph 16.1 mph N/A   Clear
9:15 AM 59.0 °F - 41.9 °F 53% 29.89 in 10.0 mi South 11.5 mph 18.4 mph N/A   Clear
9:35 AM 59.0 °F - 42.3 °F 54% 29.88 in 10.0 mi South 10.4 mph - N/A   Clear
9:55 AM 59.0 °F - 43.2 °F 56% 29.87 in 10.0 mi South 15.0 mph 20.7 mph N/A   Clear
10:15 AM 59.7 °F - 43.9 °F 56% 29.85 in 10.0 mi South 15.0 mph 19.6 mph N/A   Scattered Clouds
10:35 AM 59.9 °F - 44.6 °F 57% 29.83 in 10.0 mi SSE 16.1 mph 20.7 mph N/A   Scattered Clouds
10:55 AM 59.9 °F - 44.6 °F 57% 29.83 in 10.0 mi South 13.8 mph 20.7 mph N/A   Mostly Cloudy
11:15 AM 60.1 °F - 45.0 °F 57% 29.84 in 10.0 mi South 11.5 mph 18.4 mph N/A   Scattered Clouds
11:35 AM 60.3 °F - 45.0 °F 57% 29.84 in 10.0 mi South 15.0 mph 19.6 mph N/A   Clear
11:55 AM 60.8 °F - 45.0 °F 56% 29.84 in 10.0 mi South 12.7 mph - N/A   Clear
12:15 PM 61.2 °F - 45.1 °F 56% 29.83 in 10.0 mi South 11.5 mph 19.6 mph N/A   Clear
12:35 PM 61.7 °F - 45.5 °F 55% 29.83 in 10.0 mi South 11.5 mph 21.9 mph N/A   Scattered Clouds
12:55 PM 61.9 °F - 45.5 °F 55% 29.83 in 10.0 mi South 15.0 mph 18.4 mph N/A   Mostly Cloudy
1:15 PM 61.9 °F - 45.5 °F 55% 29.82 in 10.0 mi South 12.7 mph 24.2 mph N/A   Mostly Cloudy
1:35 PM 62.1 °F - 45.7 °F 55% 29.80 in 10.0 mi South 11.5 mph 18.4 mph N/A   Scattered Clouds
1:55 PM 62.8 °F - 45.9 °F 54% 29.78 in 10.0 mi South 13.8 mph 19.6 mph N/A   Scattered Clouds
2:15 PM 63.5 °F - 46.0 °F 53% 29.78 in 10.0 mi South 10.4 mph 17.3 mph N/A   Mostly Cloudy
2:35 PM 63.7 °F - 46.2 °F 53% 29.75 in 10.0 mi South 13.8 mph 18.4 mph N/A   Mostly Cloudy
2:55 PM 64.4 °F - 46.4 °F 52% 29.74 in 10.0 mi South 11.5 mph 20.7 mph N/A   Mostly Cloudy
3:15 PM 64.0 °F - 46.4 °F 53% 29.75 in 10.0 mi South 12.7 mph - N/A   Overcast
3:35 PM 62.2 °F - 47.8 °F 59% 29.74 in 10.0 mi South 9.2 mph 17.3 mph N/A   Overcast
3:55 PM 61.7 °F - 48.0 °F 61% 29.74 in 10.0 mi WSW 4.6 mph - N/A Rain Rain
4:15 PM 60.3 °F - 49.1 °F 67% 29.73 in 10.0 mi SW 6.9 mph - N/A Rain Light Rain
4:35 PM 58.8 °F - 50.4 °F 73% 29.75 in 10.0 mi West 6.9 mph - N/A Rain Rain
4:55 PM 56.1 °F - 52.5 °F 88% 29.76 in 10.0 mi Calm Calm - N/A Rain Light Rain
5:15 PM 55.8 °F - 52.7 °F 89% 29.78 in 7.0 mi SW 6.9 mph - N/A Rain Rain
5:35 PM 55.4 °F - 52.9 °F 91% 29.78 in 10.0 mi SW 10.4 mph - N/A Rain Rain
5:55 PM 55.0 °F - 51.4 °F 88% 29.78 in 7.0 mi SW 18.4 mph 24.2 mph N/A Rain Light Rain
6:15 PM 55.4 °F - 50.0 °F 82% 29.76 in 10.0 mi South 18.4 mph 24.2 mph N/A Rain Rain
6:35 PM 55.4 °F - 50.0 °F 82% 29.75 in 10.0 mi South 16.1 mph 23.0 mph N/A Rain Light Rain
7:15 PM 54.1 °F - 50.7 °F 88% 29.77 in 10.0 mi SW 5.8 mph - N/A   Drizzle
7:35 PM 54.5 °F - 50.5 °F 86% 29.78 in 10.0 mi SSW 8.1 mph - N/A   Overcast
7:55 PM 54.5 °F - 50.9 °F 88% 29.78 in 10.0 mi South 6.9 mph - N/A   Overcast
8:15 PM 54.5 °F - 50.5 °F 86% 29.77 in 10.0 mi SSW 6.9 mph - N/A   Overcast
8:35 PM 54.1 °F - 50.7 °F 88% 29.78 in 10.0 mi South 5.8 mph - N/A   Overcast
9:15 PM 54.0 °F - 50.4 °F 88% 29.79 in 10.0 mi WNW 8.1 mph - N/A Rain Light Rain
9:35 PM 51.4 °F - 48.7 °F 90% 29.80 in 10.0 mi WNW 9.2 mph - N/A Rain Light Rain
9:55 PM 49.6 °F - 48.2 °F 95% 29.81 in 10.0 mi WNW 4.6 mph - N/A Rain Light Rain
10:15 PM 48.7 °F - 47.3 °F 95% 29.82 in 4.0 mi WNW 9.2 mph - N/A Rain Light Rain
10:35 PM 46.8 °F - 45.3 °F 95% 29.84 in 5.0 mi NW 8.1 mph 16.1 mph N/A Rain Light Rain
10:55 PM 45.9 °F 41.7 °F 44.8 °F 96% 29.85 in 10.0 mi WNW 8.1 mph - N/A Rain Rain
11:15 PM 45.0 °F 40.1 °F 43.5 °F 95% 29.86 in 5.0 mi WNW 9.2 mph 17.3 mph N/A Rain Light Rain
11:35 PM 43.9 °F 39.9 °F 41.5 °F 91% 29.87 in 7.0 mi West 6.9 mph - N/A   Light Drizzle
11:55 PM 43.3 °F 38.1 °F 40.5 °F 90% 29.87 in 10.0 mi West 9.2 mph 17.3 mph N/A   Overcast